owner,sensor,date,latitude,longitude,vertical_datum,sea_water_temperature,qcFlag 
COMPS,ioos:station:USF.COMPS:C10:1,2015-04-01T00:05:00Z,27.1690,-82.9260,-1.0,21.712,2 
COMPS,ioos:station:USF.COMPS:C10:1,2015-04-01T00:35:00Z,27.1690,-82.9260,-1.0,21.687,2 
COMPS,ioos:station:USF.COMPS:C10:1,2015-04-01T01:05:00Z,27.1690,-82.9260,-1.0,21.63,2 
COMPS,ioos:station:USF.COMPS:C10:1,2015-04-01T01:35:00Z,27.1690,-82.9260,-1.0,21.581,2 
COMPS,ioos:station:USF.COMPS:C10:1,2015-04-01T02:05:00Z,27.1690,-82.9260,-1.0,21.577,2 
COMPS,ioos:station:USF.COMPS:C10:1,2015-04-01T02:35:00Z,27.1690,-82.9260,-1.0,21.535,2 
COMPS,ioos:station:USF.COMPS:C10:1,2015-04-01T03:05:00Z,27.1690,-82.9260,-1.0,21.501,2 
COMPS,ioos:station:USF.COMPS:C10:1,2015-04-01T03:35:00Z,27.1690,-82.9260,-1.0,21.442,2 
COMPS,ioos:station:USF.COMPS:C10:1,2015-04-01T04:05:00Z,27.1690,-82.9260,-1.0,21.428,2 
COMPS,ioos:station:USF.COMPS:C10:1,2015-04-01T04:35:00Z,27.1690,-82.9260,-1.0,21.374,2 
COMPS,ioos:station:USF.COMPS:C10:1,2015-04-01T06:05:00Z,27.1690,-82.9260,-1.0,21.353,2 
COMPS,ioos:station:USF.COMPS:C10:1,2015-04-01T06:35:00Z,27.1690,-82.9260,-1.0,21.291,2 
COMPS,ioos:station:USF.COMPS:C10:1,2015-04-01T08:05:00Z,27.1690,-82.9260,-1.0,21.188,2 
COMPS,ioos:station:USF.COMPS:C10:1,2015-04-01T08:35:00Z,27.1690,-82.9260,-1.0,21.166,2 
COMPS,ioos:station:USF.COMPS:C10:1,2015-04-01T09:05:00Z,27.1690,-82.9260,-1.0,21.145,2 
COMPS,ioos:station:USF.COMPS:C10:1,2015-04-01T09:35:00Z,27.1690,-82.9260,-1.0,21.14,2 
COMPS,ioos:station:USF.COMPS:C10:1,2015-04-01T10:05:00Z,27.1690,-82.9260,-1.0,21.128,2 
COMPS,ioos:station:USF.COMPS:C10:1,2015-04-01T10:35:00Z,27.1690,-82.9260,-1.0,21.11,2 
COMPS,ioos:station:USF.COMPS:C10:1,2015-04-01T11:05:00Z,27.1690,-82.9260,-1.0,21.083,2 
COMPS,ioos:station:USF.COMPS:C10:1,2015-04-01T11:35:00Z,27.1690,-82.9260,-1.0,21.028,2 
COMPS,ioos:station:USF.COMPS:C10:1,2015-04-01T12:05:00Z,27.1690,-82.9260,-1.0,20.996,2 
COMPS,ioos:station:USF.COMPS:C10:1,2015-04-01T12:35:00Z,27.1690,-82.9260,-1.0,20.915,2 
COMPS,ioos:station:USF.COMPS:C10:1,2015-04-01T13:05:00Z,27.1690,-82.9260,-1.0,20.898,2 
COMPS,ioos:station:USF.COMPS:C10:1,2015-04-01T13:35:00Z,27.1690,-82.9260,-1.0,20.92,2 
COMPS,ioos:station:USF.COMPS:C10:1,2015-04-01T14:05:00Z,27.1690,-82.9260,-1.0,20.966,2 
COMPS,ioos:station:USF.COMPS:C10:1,2015-04-01T14:35:00Z,27.1690,-82.9260,-1.0,21.027,2 
COMPS,ioos:station:USF.COMPS:C10:1,2015-04-01T15:05:00Z,27.1690,-82.9260,-1.0,21.091,2 
COMPS,ioos:station:USF.COMPS:C10:1,2015-04-01T15:35:00Z,27.1690,-82.9260,-1.0,21.204,2 
COMPS,ioos:station:USF.COMPS:C10:1,2015-04-01T16:05:00Z,27.1690,-82.9260,-1.0,21.286,2 
COMPS,ioos:station:USF.COMPS:C10:1,2015-04-01T16:35:00Z,27.1690,-82.9260,-1.0,21.372,2 
COMPS,ioos:station:USF.COMPS:C10:1,2015-04-01T17:05:00Z,27.1690,-82.9260,-1.0,21.412,2 
COMPS,ioos:station:USF.COMPS:C10:1,2015-04-01T17:35:00Z,27.1690,-82.9260,-1.0,21.592,2 
COMPS,ioos:station:USF.COMPS:C10:1,2015-04-01T18:05:00Z,27.1690,-82.9260,-1.0,21.538,2 
COMPS,ioos:station:USF.COMPS:C10:1,2015-04-01T18:35:00Z,27.1690,-82.9260,-1.0,21.668,2 
COMPS,ioos:station:USF.COMPS:C10:1,2015-04-01T19:05:00Z,27.1690,-82.9260,-1.0,21.693,2 
COMPS,ioos:station:USF.COMPS:C10:1,2015-04-01T19:35:00Z,27.1690,-82.9260,-1.0,22.008,2 
COMPS,ioos:station:USF.COMPS:C10:1,2015-04-01T20:05:00Z,27.1690,-82.9260,-1.0,22.183,2 
COMPS,ioos:station:USF.COMPS:C10:1,2015-04-01T20:35:00Z,27.1690,-82.9260,-1.0,22.304,2 
COMPS,ioos:station:USF.COMPS:C10:1,2015-04-01T21:05:00Z,27.1690,-82.9260,-1.0,22.238,2 
COMPS,ioos:station:USF.COMPS:C10:1,2015-04-01T21:35:00Z,27.1690,-82.9260,-1.0,22.196,2 
COMPS,ioos:station:USF.COMPS:C10:1,2015-04-01T22:05:00Z,27.1690,-82.9260,-1.0,22.235,2 
COMPS,ioos:station:USF.COMPS:C10:1,2015-04-01T22:35:00Z,27.1690,-82.9260,-1.0,22.244,2 
COMPS,ioos:station:USF.COMPS:C10:1,2015-04-01T23:05:00Z,27.1690,-82.9260,-1.0,22.205,2 
COMPS,ioos:station:USF.COMPS:C10:1,2015-04-01T23:35:00Z,27.1690,-82.9260,-1.0,22.079,2 
COMPS,ioos:station:USF.COMPS:C10:1,2015-04-02T00:05:00Z,27.1690,-82.9260,-1.0,21.966,2 
COMPS,ioos:station:USF.COMPS:C10:1,2015-04-02T00:35:00Z,27.1690,-82.9260,-1.0,21.9,2 
COMPS,ioos:station:USF.COMPS:C10:1,2015-04-02T01:05:00Z,27.1690,-82.9260,-1.0,21.883,2 
COMPS,ioos:station:USF.COMPS:C10:1,2015-04-02T01:35:00Z,27.1690,-82.9260,-1.0,21.802,2 
COMPS,ioos:station:USF.COMPS:C10:1,2015-04-02T02:05:00Z,27.1690,-82.9260,-1.0,21.751,2 
COMPS,ioos:station:USF.COMPS:C10:1,2015-04-02T02:35:00Z,27.1690,-82.9260,-1.0,21.75,2 
COMPS,ioos:station:USF.COMPS:C10:1,2015-04-02T03:05:00Z,27.1690,-82.9260,-1.0,21.76,2 
COMPS,ioos:station:USF.COMPS:C10:1,2015-04-02T03:35:00Z,27.1690,-82.9260,-1.0,21.728,2 
COMPS,ioos:station:USF.COMPS:C10:1,2015-04-02T04:05:00Z,27.1690,-82.9260,-1.0,21.738,2 
COMPS,ioos:station:USF.COMPS:C10:1,2015-04-02T04:35:00Z,27.1690,-82.9260,-1.0,21.762,2 
COMPS,ioos:station:USF.COMPS:C10:1,2015-04-02T05:05:00Z,27.1690,-82.9260,-1.0,21.752,2 
COMPS,ioos:station:USF.COMPS:C10:1,2015-04-02T05:35:00Z,27.1690,-82.9260,-1.0,21.718,2 
COMPS,ioos:station:USF.COMPS:C10:1,2015-04-02T06:05:00Z,27.1690,-82.9260,-1.0,21.574,2 
COMPS,ioos:station:USF.COMPS:C10:1,2015-04-02T06:35:00Z,27.1690,-82.9260,-1.0,21.604,2 
COMPS,ioos:station:USF.COMPS:C10:1,2015-04-02T07:05:00Z,27.1690,-82.9260,-1.0,21.624,2 
COMPS,ioos:station:USF.COMPS:C10:1,2015-04-02T07:35:00Z,27.1690,-82.9260,-1.0,21.649,2 
COMPS,ioos:station:USF.COMPS:C10:1,2015-04-02T08:05:00Z,27.1690,-82.9260,-1.0,21.637,2 
COMPS,ioos:station:USF.COMPS:C10:1,2015-04-02T08:35:00Z,27.1690,-82.9260,-1.0,21.577,2 
COMPS,ioos:station:USF.COMPS:C10:1,2015-04-02T09:05:00Z,27.1690,-82.9260,-1.0,21.476,2 
COMPS,ioos:station:USF.COMPS:C10:1,2015-04-02T09:35:00Z,27.1690,-82.9260,-1.0,21.389,2 
COMPS,ioos:station:USF.COMPS:C10:1,2015-04-02T10:05:00Z,27.1690,-82.9260,-1.0,21.283,2 
COMPS,ioos:station:USF.COMPS:C10:1,2015-04-02T10:35:00Z,27.1690,-82.9260,-1.0,21.248,2 
COMPS,ioos:station:USF.COMPS:C10:1,2015-04-02T11:05:00Z,27.1690,-82.9260,-1.0,21.255,2 
COMPS,ioos:station:USF.COMPS:C10:1,2015-04-02T11:35:00Z,27.1690,-82.9260,-1.0,21.222,2 
COMPS,ioos:station:USF.COMPS:C10:1,2015-04-02T12:05:00Z,27.1690,-82.9260,-1.0,21.23,2 
COMPS,ioos:station:USF.COMPS:C10:1,2015-04-02T12:35:00Z,27.1690,-82.9260,-1.0,21.222,2 
COMPS,ioos:station:USF.COMPS:C10:1,2015-04-02T13:05:00Z,27.1690,-82.9260,-1.0,21.214,2 
COMPS,ioos:station:USF.COMPS:C10:1,2015-04-02T13:35:00Z,27.1690,-82.9260,-1.0,21.263,2 
COMPS,ioos:station:USF.COMPS:C10:1,2015-04-02T14:05:00Z,27.1690,-82.9260,-1.0,21.288,2 
COMPS,ioos:station:USF.COMPS:C10:1,2015-04-02T14:35:00Z,27.1690,-82.9260,-1.0,21.299,2 
COMPS,ioos:station:USF.COMPS:C10:1,2015-04-02T15:05:00Z,27.1690,-82.9260,-1.0,21.375,2 
COMPS,ioos:station:USF.COMPS:C10:1,2015-04-02T15:35:00Z,27.1690,-82.9260,-1.0,21.457,2 
COMPS,ioos:station:USF.COMPS:C10:1,2015-04-02T16:05:00Z,27.1690,-82.9260,-1.0,21.444,2 
COMPS,ioos:station:USF.COMPS:C10:1,2015-04-02T16:35:00Z,27.1690,-82.9260,-1.0,21.495,2 
COMPS,ioos:station:USF.COMPS:C10:1,2015-04-02T17:05:00Z,27.1690,-82.9260,-1.0,21.75,2 
COMPS,ioos:station:USF.COMPS:C10:1,2015-04-02T17:35:00Z,27.1690,-82.9260,-1.0,21.771,2 
COMPS,ioos:station:USF.COMPS:C10:1,2015-04-02T18:05:00Z,27.1690,-82.9260,-1.0,22.086,2 
COMPS,ioos:station:USF.COMPS:C10:1,2015-04-02T18:35:00Z,27.1690,-82.9260,-1.0,22.245,2 
COMPS,ioos:station:USF.COMPS:C10:1,2015-04-02T19:05:00Z,27.1690,-82.9260,-1.0,22.201,2 
COMPS,ioos:station:USF.COMPS:C10:1,2015-04-02T19:35:00Z,27.1690,-82.9260,-1.0,21.973,2 
COMPS,ioos:station:USF.COMPS:C10:1,2015-04-02T20:05:00Z,27.1690,-82.9260,-1.0,22.004,2 
COMPS,ioos:station:USF.COMPS:C10:1,2015-04-02T20:35:00Z,27.1690,-82.9260,-1.0,22.181,2 
COMPS,ioos:station:USF.COMPS:C10:1,2015-04-02T21:05:00Z,27.1690,-82.9260,-1.0,23.019,2 
COMPS,ioos:station:USF.COMPS:C10:1,2015-04-02T21:35:00Z,27.1690,-82.9260,-1.0,22.943,2 
COMPS,ioos:station:USF.COMPS:C10:1,2015-04-02T22:05:00Z,27.1690,-82.9260,-1.0,22.91,2 
COMPS,ioos:station:USF.COMPS:C10:1,2015-04-02T22:35:00Z,27.1690,-82.9260,-1.0,22.696,2 
COMPS,ioos:station:USF.COMPS:C10:1,2015-04-02T23:05:00Z,27.1690,-82.9260,-1.0,22.55,2 
COMPS,ioos:station:USF.COMPS:C10:1,2015-04-02T23:35:00Z,27.1690,-82.9260,-1.0,22.354,2 
COMPS,ioos:station:USF.COMPS:C10:1,2015-04-03T00:05:00Z,27.1690,-82.9260,-1.0,22.123,2 
COMPS,ioos:station:USF.COMPS:C10:1,2015-04-03T00:35:00Z,27.1690,-82.9260,-1.0,22.006,2 
COMPS,ioos:station:USF.COMPS:C10:1,2015-04-03T01:05:00Z,27.1690,-82.9260,-1.0,21.936,2 
COMPS,ioos:station:USF.COMPS:C10:1,2015-04-03T01:35:00Z,27.1690,-82.9260,-1.0,22.02,2 
COMPS,ioos:station:USF.COMPS:C10:1,2015-04-03T04:05:00Z,27.1690,-82.9260,-1.0,21.823,2 
COMPS,ioos:station:USF.COMPS:C10:1,2015-04-03T04:35:00Z,27.1690,-82.9260,-1.0,21.905,2 
COMPS,ioos:station:USF.COMPS:C10:1,2015-04-03T05:05:00Z,27.1690,-82.9260,-1.0,21.839,2 
COMPS,ioos:station:USF.COMPS:C10:1,2015-04-03T05:35:00Z,27.1690,-82.9260,-1.0,21.839,2 
COMPS,ioos:station:USF.COMPS:C10:1,2015-04-03T07:05:00Z,27.1690,-82.9260,-1.0,21.5,2 
COMPS,ioos:station:USF.COMPS:C10:1,2015-04-03T07:35:00Z,27.1690,-82.9260,-1.0,21.457,2 
COMPS,ioos:station:USF.COMPS:C10:1,2015-04-03T08:05:00Z,27.1690,-82.9260,-1.0,21.4,2 
COMPS,ioos:station:USF.COMPS:C10:1,2015-04-03T08:35:00Z,27.1690,-82.9260,-1.0,21.365,2 
COMPS,ioos:station:USF.COMPS:C10:1,2015-04-03T09:05:00Z,27.1690,-82.9260,-1.0,21.314,2 
COMPS,ioos:station:USF.COMPS:C10:1,2015-04-03T09:35:00Z,27.1690,-82.9260,-1.0,21.324,2 
COMPS,ioos:station:USF.COMPS:C10:1,2015-04-03T10:05:00Z,27.1690,-82.9260,-1.0,21.249,2 
COMPS,ioos:station:USF.COMPS:C10:1,2015-04-03T10:35:00Z,27.1690,-82.9260,-1.0,21.233,2 
COMPS,ioos:station:USF.COMPS:C10:1,2015-04-03T11:05:00Z,27.1690,-82.9260,-1.0,21.209,2 
COMPS,ioos:station:USF.COMPS:C10:1,2015-04-03T11:35:00Z,27.1690,-82.9260,-1.0,21.203,2 
COMPS,ioos:station:USF.COMPS:C10:1,2015-04-03T12:05:00Z,27.1690,-82.9260,-1.0,21.195,2 
COMPS,ioos:station:USF.COMPS:C10:1,2015-04-03T12:35:00Z,27.1690,-82.9260,-1.0,21.242,2 
COMPS,ioos:station:USF.COMPS:C10:1,2015-04-03T13:05:00Z,27.1690,-82.9260,-1.0,21.313,2 
COMPS,ioos:station:USF.COMPS:C10:1,2015-04-03T13:35:00Z,27.1690,-82.9260,-1.0,21.359,2 
COMPS,ioos:station:USF.COMPS:C10:1,2015-04-03T14:05:00Z,27.1690,-82.9260,-1.0,21.43,2 
COMPS,ioos:station:USF.COMPS:C10:1,2015-04-03T14:35:00Z,27.1690,-82.9260,-1.0,21.578,2 
COMPS,ioos:station:USF.COMPS:C10:1,2015-04-03T15:05:00Z,27.1690,-82.9260,-1.0,21.662,2 
COMPS,ioos:station:USF.COMPS:C10:1,2015-04-03T15:35:00Z,27.1690,-82.9260,-1.0,21.776,2 
COMPS,ioos:station:USF.COMPS:C10:1,2015-04-03T16:05:00Z,27.1690,-82.9260,-1.0,21.877,2 
COMPS,ioos:station:USF.COMPS:C10:1,2015-04-03T16:35:00Z,27.1690,-82.9260,-1.0,21.971,2 
COMPS,ioos:station:USF.COMPS:C10:1,2015-04-03T17:05:00Z,27.1690,-82.9260,-1.0,22.187,2 
COMPS,ioos:station:USF.COMPS:C10:1,2015-04-03T17:35:00Z,27.1690,-82.9260,-1.0,22.321,2 
COMPS,ioos:station:USF.COMPS:C10:1,2015-04-03T18:05:00Z,27.1690,-82.9260,-1.0,22.412,2 
COMPS,ioos:station:USF.COMPS:C10:1,2015-04-03T18:35:00Z,27.1690,-82.9260,-1.0,22.563,2 
COMPS,ioos:station:USF.COMPS:C10:1,2015-04-03T19:05:00Z,27.1690,-82.9260,-1.0,22.71,2 
COMPS,ioos:station:USF.COMPS:C10:1,2015-04-03T19:35:00Z,27.1690,-82.9260,-1.0,22.93,2 
COMPS,ioos:station:USF.COMPS:C10:1,2015-04-03T20:05:00Z,27.1690,-82.9260,-1.0,22.955,2 
COMPS,ioos:station:USF.COMPS:C10:1,2015-04-03T20:35:00Z,27.1690,-82.9260,-1.0,23.022,2 
COMPS,ioos:station:USF.COMPS:C10:1,2015-04-03T21:05:00Z,27.1690,-82.9260,-1.0,23.023,2 
COMPS,ioos:station:USF.COMPS:C10:1,2015-04-03T21:35:00Z,27.1690,-82.9260,-1.0,22.906,2 
COMPS,ioos:station:USF.COMPS:C10:1,2015-04-03T22:05:00Z,27.1690,-82.9260,-1.0,22.955,2 
COMPS,ioos:station:USF.COMPS:C10:1,2015-04-03T22:35:00Z,27.1690,-82.9260,-1.0,22.851,2 
COMPS,ioos:station:USF.COMPS:C10:1,2015-04-03T23:05:00Z,27.1690,-82.9260,-1.0,22.716,2 
COMPS,ioos:station:USF.COMPS:C10:1,2015-04-03T23:35:00Z,27.1690,-82.9260,-1.0,22.606,2 
COMPS,ioos:station:USF.COMPS:C10:1,2015-04-04T00:05:00Z,27.1690,-82.9260,-1.0,22.586,2 
COMPS,ioos:station:USF.COMPS:C10:1,2015-04-04T00:35:00Z,27.1690,-82.9260,-1.0,22.511,2 
COMPS,ioos:station:USF.COMPS:C10:1,2015-04-04T01:05:00Z,27.1690,-82.9260,-1.0,22.424,2 
COMPS,ioos:station:USF.COMPS:C10:1,2015-04-04T01:35:00Z,27.1690,-82.9260,-1.0,22.399,2 
COMPS,ioos:station:USF.COMPS:C10:1,2015-04-04T02:05:00Z,27.1690,-82.9260,-1.0,22.342,2 
COMPS,ioos:station:USF.COMPS:C10:1,2015-04-04T02:35:00Z,27.1690,-82.9260,-1.0,22.31,2 
COMPS,ioos:station:USF.COMPS:C10:1,2015-04-04T04:05:00Z,27.1690,-82.9260,-1.0,22.178,2 
COMPS,ioos:station:USF.COMPS:C10:1,2015-04-04T04:35:00Z,27.1690,-82.9260,-1.0,22.188,2 
COMPS,ioos:station:USF.COMPS:C10:1,2015-04-04T05:05:00Z,27.1690,-82.9260,-1.0,22.2,2 
COMPS,ioos:station:USF.COMPS:C10:1,2015-04-04T05:35:00Z,27.1690,-82.9260,-1.0,22.178,2 
COMPS,ioos:station:USF.COMPS:C10:1,2015-04-04T06:05:00Z,27.1690,-82.9260,-1.0,22.17,2 
COMPS,ioos:station:USF.COMPS:C10:1,2015-04-04T06:35:00Z,27.1690,-82.9260,-1.0,21.957,2 
COMPS,ioos:station:USF.COMPS:C10:1,2015-04-04T07:05:00Z,27.1690,-82.9260,-1.0,21.806,2 
COMPS,ioos:station:USF.COMPS:C10:1,2015-04-04T07:35:00Z,27.1690,-82.9260,-1.0,21.818,2 
COMPS,ioos:station:USF.COMPS:C10:1,2015-04-04T08:05:00Z,27.1690,-82.9260,-1.0,21.807,2 
COMPS,ioos:station:USF.COMPS:C10:1,2015-04-04T08:35:00Z,27.1690,-82.9260,-1.0,21.728,2 
COMPS,ioos:station:USF.COMPS:C10:1,2015-04-04T09:05:00Z,27.1690,-82.9260,-1.0,21.632,2 
COMPS,ioos:station:USF.COMPS:C10:1,2015-04-04T09:35:00Z,27.1690,-82.9260,-1.0,21.566,2 
COMPS,ioos:station:USF.COMPS:C10:1,2015-04-04T10:05:00Z,27.1690,-82.9260,-1.0,21.535,2 
COMPS,ioos:station:USF.COMPS:C10:1,2015-04-04T10:35:00Z,27.1690,-82.9260,-1.0,21.49,2 
COMPS,ioos:station:USF.COMPS:C10:1,2015-04-04T11:05:00Z,27.1690,-82.9260,-1.0,21.5,2 
COMPS,ioos:station:USF.COMPS:C10:1,2015-04-04T11:35:00Z,27.1690,-82.9260,-1.0,21.513,2 
COMPS,ioos:station:USF.COMPS:C10:1,2015-04-04T12:05:00Z,27.1690,-82.9260,-1.0,21.564,2 
COMPS,ioos:station:USF.COMPS:C10:1,2015-04-04T12:35:00Z,27.1690,-82.9260,-1.0,21.66,2 
COMPS,ioos:station:USF.COMPS:C10:1,2015-04-04T13:05:00Z,27.1690,-82.9260,-1.0,21.713,2 
COMPS,ioos:station:USF.COMPS:C10:1,2015-04-04T13:35:00Z,27.1690,-82.9260,-1.0,21.724,2 
COMPS,ioos:station:USF.COMPS:C10:1,2015-04-04T14:05:00Z,27.1690,-82.9260,-1.0,21.755,2 
COMPS,ioos:station:USF.COMPS:C10:1,2015-04-04T14:35:00Z,27.1690,-82.9260,-1.0,21.758,2 
COMPS,ioos:station:USF.COMPS:C10:1,2015-04-04T15:05:00Z,27.1690,-82.9260,-1.0,21.829,2 
COMPS,ioos:station:USF.COMPS:C10:1,2015-04-04T15:35:00Z,27.1690,-82.9260,-1.0,21.884,2 
COMPS,ioos:station:USF.COMPS:C10:1,2015-04-04T16:05:00Z,27.1690,-82.9260,-1.0,22.319,2 
COMPS,ioos:station:USF.COMPS:C10:1,2015-04-04T16:35:00Z,27.1690,-82.9260,-1.0,22.417,2 
COMPS,ioos:station:USF.COMPS:C10:1,2015-04-04T17:05:00Z,27.1690,-82.9260,-1.0,22.545,2 
COMPS,ioos:station:USF.COMPS:C10:1,2015-04-04T17:35:00Z,27.1690,-82.9260,-1.0,22.965,2 
COMPS,ioos:station:USF.COMPS:C10:1,2015-04-04T18:05:00Z,27.1690,-82.9260,-1.0,22.963,2 
COMPS,ioos:station:USF.COMPS:C10:1,2015-04-04T18:35:00Z,27.1690,-82.9260,-1.0,22.985,2 
COMPS,ioos:station:USF.COMPS:C10:1,2015-04-04T19:05:00Z,27.1690,-82.9260,-1.0,22.958,2 
COMPS,ioos:station:USF.COMPS:C10:1,2015-04-04T19:35:00Z,27.1690,-82.9260,-1.0,23.296,2 
COMPS,ioos:station:USF.COMPS:C10:1,2015-04-04T20:05:00Z,27.1690,-82.9260,-1.0,23.497,2 
COMPS,ioos:station:USF.COMPS:C10:1,2015-04-04T20:35:00Z,27.1690,-82.9260,-1.0,23.425,2 
COMPS,ioos:station:USF.COMPS:C10:1,2015-04-04T21:05:00Z,27.1690,-82.9260,-1.0,23.538,2 
COMPS,ioos:station:USF.COMPS:C10:1,2015-04-04T21:35:00Z,27.1690,-82.9260,-1.0,23.608,2 
COMPS,ioos:station:USF.COMPS:C10:1,2015-04-04T22:05:00Z,27.1690,-82.9260,-1.0,23.36,2 
COMPS,ioos:station:USF.COMPS:C10:1,2015-04-04T22:35:00Z,27.1690,-82.9260,-1.0,23.379,2 
COMPS,ioos:station:USF.COMPS:C10:1,2015-04-04T23:05:00Z,27.1690,-82.9260,-1.0,23.281,2 
COMPS,ioos:station:USF.COMPS:C10:1,2015-04-04T23:35:00Z,27.1690,-82.9260,-1.0,23.348,2 
COMPS,ioos:station:USF.COMPS:C10:1,2015-04-05T00:05:00Z,27.1690,-82.9260,-1.0,23.214,2 
COMPS,ioos:station:USF.COMPS:C10:1,2015-04-05T00:35:00Z,27.1690,-82.9260,-1.0,23.098,2 
COMPS,ioos:station:USF.COMPS:C10:1,2015-04-05T01:05:00Z,27.1690,-82.9260,-1.0,22.835,2 
COMPS,ioos:station:USF.COMPS:C10:1,2015-04-05T01:35:00Z,27.1690,-82.9260,-1.0,22.805,2 
COMPS,ioos:station:USF.COMPS:C10:1,2015-04-05T02:05:00Z,27.1690,-82.9260,-1.0,22.58,2 
COMPS,ioos:station:USF.COMPS:C10:1,2015-04-05T02:35:00Z,27.1690,-82.9260,-1.0,22.377,2 
COMPS,ioos:station:USF.COMPS:C10:1,2015-04-05T03:05:00Z,27.1690,-82.9260,-1.0,22.29,2 
COMPS,ioos:station:USF.COMPS:C10:1,2015-04-05T03:35:00Z,27.1690,-82.9260,-1.0,22.19,2 
COMPS,ioos:station:USF.COMPS:C10:1,2015-04-05T04:05:00Z,27.1690,-82.9260,-1.0,22.164,2 
COMPS,ioos:station:USF.COMPS:C10:1,2015-04-05T04:35:00Z,27.1690,-82.9260,-1.0,22.132,2 
COMPS,ioos:station:USF.COMPS:C10:1,2015-04-05T05:05:00Z,27.1690,-82.9260,-1.0,22.152,2 
COMPS,ioos:station:USF.COMPS:C10:1,2015-04-05T05:35:00Z,27.1690,-82.9260,-1.0,22.15,2 
COMPS,ioos:station:USF.COMPS:C10:1,2015-04-05T06:05:00Z,27.1690,-82.9260,-1.0,22.148,2 
COMPS,ioos:station:USF.COMPS:C10:1,2015-04-05T06:35:00Z,27.1690,-82.9260,-1.0,22.095,2 
COMPS,ioos:station:USF.COMPS:C10:1,2015-04-05T07:05:00Z,27.1690,-82.9260,-1.0,22.084,2 
COMPS,ioos:station:USF.COMPS:C10:1,2015-04-05T07:35:00Z,27.1690,-82.9260,-1.0,22.005,2 
COMPS,ioos:station:USF.COMPS:C10:1,2015-04-05T08:05:00Z,27.1690,-82.9260,-1.0,21.991,2 
COMPS,ioos:station:USF.COMPS:C10:1,2015-04-05T08:35:00Z,27.1690,-82.9260,-1.0,21.951,2 
COMPS,ioos:station:USF.COMPS:C10:1,2015-04-05T09:05:00Z,27.1690,-82.9260,-1.0,21.953,2 
COMPS,ioos:station:USF.COMPS:C10:1,2015-04-05T09:35:00Z,27.1690,-82.9260,-1.0,21.941,2 
COMPS,ioos:station:USF.COMPS:C10:1,2015-04-05T10:05:00Z,27.1690,-82.9260,-1.0,21.958,2 
COMPS,ioos:station:USF.COMPS:C10:1,2015-04-05T10:35:00Z,27.1690,-82.9260,-1.0,21.977,2 
COMPS,ioos:station:USF.COMPS:C10:1,2015-04-05T11:05:00Z,27.1690,-82.9260,-1.0,21.969,2 
COMPS,ioos:station:USF.COMPS:C10:1,2015-04-05T11:35:00Z,27.1690,-82.9260,-1.0,21.972,2 
COMPS,ioos:station:USF.COMPS:C10:1,2015-04-05T12:05:00Z,27.1690,-82.9260,-1.0,21.971,2 
COMPS,ioos:station:USF.COMPS:C10:1,2015-04-05T12:35:00Z,27.1690,-82.9260,-1.0,21.962,2 
COMPS,ioos:station:USF.COMPS:C10:1,2015-04-05T13:05:00Z,27.1690,-82.9260,-1.0,21.937,2 
COMPS,ioos:station:USF.COMPS:C10:1,2015-04-05T13:35:00Z,27.1690,-82.9260,-1.0,21.932,2 
COMPS,ioos:station:USF.COMPS:C10:1,2015-04-05T14:05:00Z,27.1690,-82.9260,-1.0,21.954,2 
COMPS,ioos:station:USF.COMPS:C10:1,2015-04-05T14:35:00Z,27.1690,-82.9260,-1.0,21.973,2 
COMPS,ioos:station:USF.COMPS:C10:1,2015-04-05T15:05:00Z,27.1690,-82.9260,-1.0,22.003,2 
COMPS,ioos:station:USF.COMPS:C10:1,2015-04-05T15:35:00Z,27.1690,-82.9260,-1.0,22.046,2 
COMPS,ioos:station:USF.COMPS:C10:1,2015-04-05T16:05:00Z,27.1690,-82.9260,-1.0,22.114,2 
COMPS,ioos:station:USF.COMPS:C10:1,2015-04-05T16:35:00Z,27.1690,-82.9260,-1.0,22.186,2 
COMPS,ioos:station:USF.COMPS:C10:1,2015-04-05T17:05:00Z,27.1690,-82.9260,-1.0,22.336,2 
COMPS,ioos:station:USF.COMPS:C10:1,2015-04-05T17:35:00Z,27.1690,-82.9260,-1.0,22.593,2 
COMPS,ioos:station:USF.COMPS:C10:1,2015-04-05T18:05:00Z,27.1690,-82.9260,-1.0,22.683,2 
COMPS,ioos:station:USF.COMPS:C10:1,2015-04-05T18:35:00Z,27.1690,-82.9260,-1.0,22.931,2 
COMPS,ioos:station:USF.COMPS:C10:1,2015-04-05T19:05:00Z,27.1690,-82.9260,-1.0,22.872,2 
COMPS,ioos:station:USF.COMPS:C10:1,2015-04-05T19:35:00Z,27.1690,-82.9260,-1.0,23.082,2 
COMPS,ioos:station:USF.COMPS:C10:1,2015-04-05T20:05:00Z,27.1690,-82.9260,-1.0,23.207,2 
COMPS,ioos:station:USF.COMPS:C10:1,2015-04-05T20:35:00Z,27.1690,-82.9260,-1.0,23.28,2 
COMPS,ioos:station:USF.COMPS:C10:1,2015-04-05T21:05:00Z,27.1690,-82.9260,-1.0,23.523,2 
COMPS,ioos:station:USF.COMPS:C10:1,2015-04-05T21:35:00Z,27.1690,-82.9260,-1.0,23.477,2 
COMPS,ioos:station:USF.COMPS:C10:1,2015-04-05T22:05:00Z,27.1690,-82.9260,-1.0,23.632,2 
COMPS,ioos:station:USF.COMPS:C10:1,2015-04-05T22:35:00Z,27.1690,-82.9260,-1.0,23.407,2 
COMPS,ioos:station:USF.COMPS:C10:1,2015-04-05T23:05:00Z,27.1690,-82.9260,-1.0,23.397,2 
COMPS,ioos:station:USF.COMPS:C10:1,2015-04-05T23:35:00Z,27.1690,-82.9260,-1.0,23.369,2 
COMPS,ioos:station:USF.COMPS:C10:1,2015-04-06T00:05:00Z,27.1690,-82.9260,-1.0,23.303,2 
COMPS,ioos:station:USF.COMPS:C10:1,2015-04-06T00:35:00Z,27.1690,-82.9260,-1.0,23.438,2 
COMPS,ioos:station:USF.COMPS:C10:1,2015-04-06T01:05:00Z,27.1690,-82.9260,-1.0,23.309,2 
COMPS,ioos:station:USF.COMPS:C10:1,2015-04-06T01:35:00Z,27.1690,-82.9260,-1.0,22.93,2 
COMPS,ioos:station:USF.COMPS:C10:1,2015-04-06T02:05:00Z,27.1690,-82.9260,-1.0,22.763,2 
COMPS,ioos:station:USF.COMPS:C10:1,2015-04-06T02:35:00Z,27.1690,-82.9260,-1.0,22.585,2 
COMPS,ioos:station:USF.COMPS:C10:1,2015-04-06T03:05:00Z,27.1690,-82.9260,-1.0,22.514,2 
COMPS,ioos:station:USF.COMPS:C10:1,2015-04-06T03:35:00Z,27.1690,-82.9260,-1.0,22.516,2 
COMPS,ioos:station:USF.COMPS:C10:1,2015-04-06T04:05:00Z,27.1690,-82.9260,-1.0,22.497,2 
COMPS,ioos:station:USF.COMPS:C10:1,2015-04-06T04:35:00Z,27.1690,-82.9260,-1.0,22.405,2 
COMPS,ioos:station:USF.COMPS:C10:1,2015-04-06T05:05:00Z,27.1690,-82.9260,-1.0,22.39,2 
COMPS,ioos:station:USF.COMPS:C10:1,2015-04-06T05:35:00Z,27.1690,-82.9260,-1.0,22.391,2 
COMPS,ioos:station:USF.COMPS:C10:1,2015-04-06T06:05:00Z,27.1690,-82.9260,-1.0,22.321,2 
COMPS,ioos:station:USF.COMPS:C10:1,2015-04-06T06:35:00Z,27.1690,-82.9260,-1.0,22.279,2 
COMPS,ioos:station:USF.COMPS:C10:1,2015-04-06T07:05:00Z,27.1690,-82.9260,-1.0,22.243,2 
COMPS,ioos:station:USF.COMPS:C10:1,2015-04-06T07:35:00Z,27.1690,-82.9260,-1.0,22.227,2 
COMPS,ioos:station:USF.COMPS:C10:1,2015-04-06T08:05:00Z,27.1690,-82.9260,-1.0,22.206,2 
COMPS,ioos:station:USF.COMPS:C10:1,2015-04-06T08:35:00Z,27.1690,-82.9260,-1.0,22.19,2 
COMPS,ioos:station:USF.COMPS:C10:1,2015-04-06T09:05:00Z,27.1690,-82.9260,-1.0,22.184,2 
COMPS,ioos:station:USF.COMPS:C10:1,2015-04-06T09:35:00Z,27.1690,-82.9260,-1.0,22.18,2 
COMPS,ioos:station:USF.COMPS:C10:1,2015-04-06T10:05:00Z,27.1690,-82.9260,-1.0,22.168,2 
COMPS,ioos:station:USF.COMPS:C10:1,2015-04-06T10:35:00Z,27.1690,-82.9260,-1.0,22.157,2 
COMPS,ioos:station:USF.COMPS:C10:1,2015-04-06T11:05:00Z,27.1690,-82.9260,-1.0,22.123,2 
COMPS,ioos:station:USF.COMPS:C10:1,2015-04-06T11:35:00Z,27.1690,-82.9260,-1.0,22.096,2 
COMPS,ioos:station:USF.COMPS:C10:1,2015-04-06T12:05:00Z,27.1690,-82.9260,-1.0,22.081,2 
COMPS,ioos:station:USF.COMPS:C10:1,2015-04-06T12:35:00Z,27.1690,-82.9260,-1.0,22.148,2 
COMPS,ioos:station:USF.COMPS:C10:1,2015-04-06T13:05:00Z,27.1690,-82.9260,-1.0,22.147,2 
COMPS,ioos:station:USF.COMPS:C10:1,2015-04-06T13:35:00Z,27.1690,-82.9260,-1.0,22.179,2 
COMPS,ioos:station:USF.COMPS:C10:1,2015-04-06T14:05:00Z,27.1690,-82.9260,-1.0,22.179,2 
COMPS,ioos:station:USF.COMPS:C10:1,2015-04-06T14:35:00Z,27.1690,-82.9260,-1.0,22.208,2 
COMPS,ioos:station:USF.COMPS:C10:1,2015-04-06T15:05:00Z,27.1690,-82.9260,-1.0,22.222,2 
COMPS,ioos:station:USF.COMPS:C10:1,2015-04-06T15:35:00Z,27.1690,-82.9260,-1.0,22.281,2 
COMPS,ioos:station:USF.COMPS:C10:1,2015-04-06T16:05:00Z,27.1690,-82.9260,-1.0,22.332,2 
COMPS,ioos:station:USF.COMPS:C10:1,2015-04-06T16:35:00Z,27.1690,-82.9260,-1.0,22.373,2 
COMPS,ioos:station:USF.COMPS:C10:1,2015-04-06T17:05:00Z,27.1690,-82.9260,-1.0,22.477,2 
COMPS,ioos:station:USF.COMPS:C10:1,2015-04-06T17:35:00Z,27.1690,-82.9260,-1.0,22.561,2 
COMPS,ioos:station:USF.COMPS:C10:1,2015-04-06T18:05:00Z,27.1690,-82.9260,-1.0,22.797,2 
COMPS,ioos:station:USF.COMPS:C10:1,2015-04-06T18:35:00Z,27.1690,-82.9260,-1.0,22.928,2 
COMPS,ioos:station:USF.COMPS:C10:1,2015-04-06T19:05:00Z,27.1690,-82.9260,-1.0,23.037,2 
COMPS,ioos:station:USF.COMPS:C10:1,2015-04-06T19:35:00Z,27.1690,-82.9260,-1.0,23.22,2 
COMPS,ioos:station:USF.COMPS:C10:1,2015-04-06T20:05:00Z,27.1690,-82.9260,-1.0,23.352,2 
COMPS,ioos:station:USF.COMPS:C10:1,2015-04-06T20:35:00Z,27.1690,-82.9260,-1.0,23.399,2 
COMPS,ioos:station:USF.COMPS:C10:1,2015-04-06T21:05:00Z,27.1690,-82.9260,-1.0,23.368,2 
COMPS,ioos:station:USF.COMPS:C10:1,2015-04-06T21:35:00Z,27.1690,-82.9260,-1.0,23.247,2 